EW5586 Weather Reports


time (UTC)temp
C
wind
direction
speed
KPH
gust
KPH
rain 1hr
cm
rain 24hr
cm
rain mn
cm
humidity
%
barometer
mb
20260901112913 -17 0.0 0.0 0.00 0.00 0.00 1014.8
20260901112328 -17 0.0 0.0 0.00 0.00 0.00 1014.8
20260901111820 -17 0.0 0.0 0.00 0.00 0.00 1014.9
20260901111228 -17 0.0 0.0 0.00 0.00 0.00 1015.0
20260901110722 -17 0.0 0.0 0.00 0.00 0.00 1014.8
20260901110216 -17 0.0 0.0 0.00 0.00 0.00 1014.8
20260901105710 -17 0.0 0.0 0.00 0.00 0.00 1014.7
20260901104626 -17 0.0 0.0 0.00 0.00 0.00 1014.9
20260901104119 -17 0.0 0.0 0.00 0.00 0.00 1014.8
20260901103523 -17 0.0 0.0 0.00 0.00 0.00 1014.6
20260901103022 -17 0.0 0.0 0.00 0.00 0.00 1015.3
20260901102520 -17 0.0 0.0 0.00 0.00 0.00 1015.5
20260901101926 -17 0.0 0.0 0.00 0.00 0.00 1015.0
20260901101329 -17 0.0 0.0 0.00 0.00 0.00 1015.0
20260901100821 -17 0.0 0.0 0.00 0.00 0.00 1015.1
20260901100319 -17 0.0 0.0 0.00 0.00 0.00 1015.2
20260901095818 -17 0.0 0.0 0.00 0.00 0.00 1015.2
20260901095220 -17 0.0 0.0 0.00 0.00 0.00 1015.3
20260901094717 -17 0.0 0.0 0.00 0.00 0.00 1015.4
20260901094122 -17 0.0 0.0 0.00 0.00 0.00 1015.2
20260901093619 -17 0.0 0.0 0.00 0.00 0.00 1015.1
20260901093019 -17 0.0 0.0 0.00 0.00 0.00 1015.1
20260901091923 -17 0.0 0.0 0.00 0.00 0.00 1015.5
20260901091417 -17 0.0 0.0 0.00 0.00 0.00 1015.3
20260901090825 -17 0.0 0.0 0.00 0.00 0.00 1015.2
20260901090326 -17 0.0 0.0 0.00 0.00 0.00 1015.3
20260901085225 -17 0.0 0.0 0.00 0.00 0.00 1015.2
20260901084725 -17 0.0 0.0 0.00 0.00 0.00 1015.2
20260901084221 -17 0.0 0.0 0.00 0.00 0.00 1015.0
20260901083624 -17 0.0 0.0 0.00 0.00 0.00 1014.9
20260901083121 -17 0.0 0.0 0.00 0.00 0.00 1014.9
20260901082022 -17 0.0 0.0 0.00 0.00 0.00 1014.8
20260901081425 -17 0.0 0.0 0.00 0.00 0.00 1014.8
20260901080923 -17 0.0 0.0 0.00 0.00 0.00 1015.1
20260901080417 -17 0.0 0.0 0.00 0.00 0.00 1015.5
20260901075829 -17 0.0 0.0 0.00 0.00 0.00 1015.5
20260901075326 -17 0.0 0.0 0.00 0.00 0.00 1015.5
20260901073730 18 190 0.0 6.4 0.00 0.00 0.00 95 1015.1
20260901073229 18 190 0.0 6.4 0.00 0.00 0.00 95 1015.2
20260901072723 18 190 0.0 0.0 0.00 0.00 0.00 95 1015.1
20260901071206 18 190 0.0 0.0 0.00 0.00 0.00 95 1015.3
20260901070659 18 190 0.0 0.0 0.00 0.00 0.00 95 1015.4
20260901070153 18 190 1.6 6.4 0.00 0.00 0.00 95 1015.3
20260901065647 18 190 1.6 6.4 0.00 0.00 0.00 95 1015.3
20260901064136 18 273 0.0 0.0 0.00 0.00 0.00 95 1015.4
20260901063633 18 273 0.0 0.0 0.00 0.00 0.00 95 1015.4
20260901063131 18 273 0.0 0.0 0.00 0.00 0.00 95 1015.4
20260901062629 18 273 0.0 0.0 0.00 0.00 0.00 95 1015.5
20260901062129 18 273 0.0 0.0 0.00 0.00 0.00 95 1015.5
20260901061629 18 273 0.0 0.0 0.00 0.00 0.00 94 1015.5
20260901061129 18 273 0.0 0.0 0.00 0.00 0.00 94 1015.6
20260901060627 18 273 0.0 0.0 0.00 0.00 0.00 94 1015.8
20260901055625 18 273 0.0 0.0 0.00 0.00 0.00 94 1015.7
20260901055125 18 273 0.0 0.0 0.00 0.00 0.00 94 1015.7
20260901054625 18 273 0.0 0.0 0.00 0.00 0.00 94 1015.9
20260901054125 18 273 0.0 0.0 0.00 0.00 0.00 94 1016.0
20260901053625 18 273 0.0 0.0 0.00 0.00 0.00 94 1016.2
20260901053125 19 273 0.0 0.0 0.00 0.00 0.00 93 1016.1
20260901052626 19 273 0.0 0.0 0.00 0.00 0.00 93 1016.2
20260901052121 19 273 0.0 0.0 0.00 0.00 0.00 93 1016.2
20260901051119 19 211 0.0 0.0 0.00 0.00 0.00 93 1016.1
20260901050119 19 211 0.0 3.2 0.00 0.00 0.00 93 1015.9
20260901045619 19 211 1.6 8.0 0.00 0.00 0.00 93 1016.0
20260901045120 19 196 1.6 8.0 0.00 0.00 0.00 93 1015.9
20260901044619 19 173 0.0 8.0 0.00 0.00 0.00 93 1015.8
20260901044119 20 165 0.0 0.0 0.00 0.00 0.00 93 1015.8
20260901043620 20 162 0.0 0.0 0.00 0.00 0.00 93 1015.8
20260901043118 20 161 0.0 0.0 0.00 0.00 0.00 93 1015.6
20260901042616 20 161 0.0 0.0 0.00 0.00 0.00 93 1015.7
20260901042115 20 161 0.0 0.0 0.00 0.00 0.00 94 1015.7
20260901041111 20 155 0.0 0.0 0.00 0.00 0.00 94 1015.9
20260901040611 19 155 0.0 0.0 0.00 0.00 0.00 94 1015.9
20260901040111 19 155 0.0 0.0 0.00 0.00 0.00 94 1016.0
20260901035611 19 155 0.0 0.0 0.00 0.00 0.00 94 1016.1
20260901034611 19 155 0.0 0.0 0.00 0.00 0.00 94 1016.2
20260901033611 19 155 0.0 0.0 0.00 0.00 0.00 94 1016.1
20260901033107 19 155 0.0 0.0 0.00 0.00 0.00 93 1016.1
20260901032607 19 155 0.0 0.0 0.00 0.00 0.00 94 1016.2
20260901031607 19 155 0.0 8.0 0.00 0.00 0.00 94 1016.2
20260901031106 19 155 0.0 8.0 0.00 0.00 0.00 94 1016.2
20260901030608 19 169 0.0 0.0 0.00 0.00 0.00 94 1016.3
20260901030108 19 265 0.0 0.0 0.00 0.00 0.00 93 1016.5
20260901025607 19 265 0.0 0.0 0.00 0.00 0.00 93 1016.4
20260901025107 19 265 0.0 0.0 0.00 0.00 0.00 93 1016.4
20260901024603 19 264 0.0 0.0 0.00 0.00 0.00 93 1016.3
20260901024103 20 264 0.0 0.0 0.00 0.00 0.00 93 1016.3
20260901023103 20 265 0.0 0.0 0.00 0.00 0.00 93 1016.5
20260901022603 20 265 0.0 0.0 0.00 0.00 0.00 92 1016.7
20260901022104 20 228 0.0 0.0 0.00 0.00 0.00 92 1016.6
20260901021603 20 224 0.0 0.0 0.00 0.00 0.00 93 1016.6
20260901021103 20 224 0.0 0.0 0.00 0.00 0.00 93 1016.5
20260901020603 20 342 0.0 0.0 0.00 0.00 0.00 92 1016.3
20260901020104 20 344 0.0 0.0 0.00 0.00 0.00 92 1016.3
20260901015603 20 344 0.0 0.0 0.00 0.00 0.00 92 1016.5
20260901014601 20 324 0.0 0.0 0.00 0.00 0.00 92 1016.6
20260901014100 20 208 0.0 0.0 0.00 0.00 0.00 92 1016.5
20260901013559 20 208 0.0 0.0 0.00 0.00 0.00 92 1016.5
20260901013059 20 208 0.0 1.6 0.00 0.00 0.00 93 1016.4
20260901012556 20 202 0.0 1.6 0.00 0.00 0.00 93 1016.4
20260901012057 20 324 0.0 0.0 0.00 0.00 0.00 92 1016.6
20260901011555 20 324 0.0 0.0 0.00 0.00 0.00 92 1016.6
20260901010554 20 312 0.0 0.0 0.00 0.00 0.00 92 1016.4
20260901010055 20 307 0.0 0.0 0.00 0.00 0.00 92 1016.5
20260901005553 20 307 0.0 0.0 0.00 0.00 0.00 92 1016.6
20260901005053 20 307 0.0 0.0 0.00 0.00 0.00 92 1016.8
20260901004549 20 306 0.0 0.0 0.00 0.00 0.00 92 1016.8
20260901004049 20 307 0.0 0.0 0.00 0.00 0.00 92 1016.9
20260901003549 20 307 0.0 0.0 0.00 0.00 0.00 91 1016.7
20260901003051 20 307 0.0 0.0 0.00 0.00 0.00 91 1016.4
20260901002549 20 306 0.0 0.0 0.00 0.00 0.00 91 1016.4
20260901002049 20 307 0.0 0.0 0.00 0.00 0.00 91 1016.4
20260901001549 20 307 0.0 0.0 0.00 0.00 0.00 91 1016.4
20260901000549 20 307 0.0 0.0 0.00 0.00 0.00 91 1016.5
20260901000045 20 306 0.0 0.0 0.00 0.00 0.00 91 1016.5
20260831235045 20 307 0.0 0.0 0.00 0.00 0.00 90 1016.5
20260831234545 20 307 0.0 0.0 0.00 0.00 0.00 90 1016.5
20260831234046 20 307 0.0 0.0 0.00 0.00 0.00 90 1016.5
20260831233545 20 307 0.0 0.0 0.00 0.00 0.00 89 1016.5
20260831233045 21 306 0.0 0.0 0.00 0.00 0.00 89 1016.5
20260831232545 21 303 0.0 0.0 0.00 0.00 0.00 89 1016.5
20260831232048 21 303 0.0 0.0 0.00 0.00 0.00 89 1016.6
20260831231541 21 303 0.0 0.0 0.00 0.00 0.00 89 1016.7
20260831231042 21 303 0.0 0.0 0.00 0.00 0.00 89 1016.8
20260831230537 21 303 0.0 0.0 0.00 0.00 0.00 89 1016.9
20260831230040 21 303 0.0 0.0 0.00 0.00 0.00 88 1016.9
20260831225537 21 303 0.0 0.0 0.00 0.00 0.00 89 1016.9
20260831224535 21 302 0.0 0.0 0.00 0.00 0.00 88 1016.9
20260831224035 21 302 0.0 0.0 0.00 0.00 0.00 88 1016.9
20260831223535 21 302 0.0 0.0 0.00 0.00 0.00 88 1016.8
20260831223032 21 302 0.0 0.0 0.00 0.00 0.00 88 1016.8
20260831222030 21 302 0.0 0.0 0.00 0.00 0.00 87 1016.8
20260831221529 21 302 0.0 0.0 0.00 0.00 0.00 87 1016.8
20260831221030 21 302 0.0 0.0 0.00 0.00 0.00 87 1016.8
20260831220528 21 302 0.0 0.0 0.00 0.00 0.00 87 1017.0
20260831220029 21 302 0.0 0.0 0.00 0.00 0.00 87 1017.0
20260831215520 21 302 0.0 0.0 0.00 0.00 0.00 87 1017.0
20260831215014 21 302 0.0 0.0 0.00 0.00 0.00 87 1017.0
20260831214508 21 302 0.0 0.0 0.00 0.00 0.00 87 1017.0
20260831214002 21 302 0.0 0.0 0.00 0.00 0.00 87 1017.0
20260831213456 21 302 0.0 0.0 0.00 0.00 0.00 87 1017.0
20260831212950 21 302 0.0 0.0 0.00 0.00 0.00 86 1017.0
20260831212444 21 302 0.0 0.0 0.00 0.00 0.00 86 1017.0
20260831211938 21 302 0.0 0.0 0.00 0.00 0.00 86 1017.1
20260831211432 21 302 0.0 0.0 0.00 0.00 0.00 86 1017.1
20260831210926 21 302 0.0 0.0 0.00 0.00 0.00 86 1017.2
20260831210420 21 302 0.0 0.0 0.00 0.00 0.00 86 1017.3
20260831205915 21 302 0.0 0.0 0.00 0.00 0.00 86 1017.3
20260831205408 21 302 0.0 0.0 0.00 0.00 0.00 86 1017.4
20260831204903 21 302 0.0 0.0 0.00 0.00 0.00 87 1017.4
20260831204356 21 302 0.0 0.0 0.00 0.00 0.00 87 1017.4
20260831203856 21 302 0.0 0.0 0.00 0.00 0.00 87 1017.5
20260831203355 21 302 0.0 0.0 0.00 0.00 0.00 88 1017.4
20260831202853 21 302 0.0 0.0 0.00 0.00 0.00 88 1017.5
20260831202351 21 302 0.0 0.0 0.00 0.00 0.00 88 1017.4
20260831201348 21 302 0.0 0.0 0.00 0.00 0.00 89 1017.5
20260831200850 21 302 0.0 0.0 0.00 0.00 0.00 89 1017.5
20260831200346 21 302 0.0 0.0 0.00 0.00 0.00 89 1017.6
20260831195847 21 302 0.0 0.0 0.00 0.00 0.00 90 1017.7
20260831194842 21 246 0.0 0.0 0.00 0.00 0.00 90 1017.7
20260831194343 21 246 0.0 0.0 0.00 0.00 0.00 90 1017.8
20260831193841 21 246 0.0 0.0 0.00 0.00 0.00 90 1017.8
20260831193340 21 246 0.0 0.0 0.00 0.00 0.00 90 1017.9
20260831192340 21 244 0.0 1.6 0.00 0.00 0.00 89 1017.9
20260831191841 21 242 0.0 1.6 0.00 0.00 0.00 89 1018.0
20260831191339 21 201 0.0 6.4 0.00 0.00 0.00 89 1017.9
20260831190837 21 183 1.6 8.0 0.00 0.00 0.00 88 1017.9
20260831190336 21 188 1.6 8.0 0.00 0.00 0.00 87 1018.0
20260831185831 21 170 0.0 6.4 0.00 0.00 0.00 87 1018.0
20260831185325 21 196 1.6 3.2 0.00 0.00 0.00 87 1018.0
20260831184313 21 164 0.0 0.0 0.00 0.00 0.00 87 1018.2
20260831183806 21 167 0.0 0.0 0.00 0.00 0.00 87 1018.3
20260831183300 21 167 0.0 0.0 0.00 0.00 0.00 87 1018.3
20260831182757 21 166 0.0 0.0 0.00 0.00 0.00 87 1018.3
20260831182248 21 177 0.0 0.0 0.00 0.00 0.00 87 1018.4
20260831181742 21 180 0.0 0.0 0.00 0.00 0.00 88 1018.5
20260831181236 21 183 0.0 0.0 0.00 0.00 0.00 88 1018.5
20260831180730 21 221 0.0 8.0 0.00 0.00 0.00 88 1018.5
20260831175718 21 163 3.2 9.7 0.00 0.00 0.00 88 1018.5
20260831175212 21 211 3.2 9.7 0.00 0.00 0.00 88 1018.5
20260831174706 21 208 6.4 11.3 0.00 0.00 0.00 88 1018.5
20260831174159 21 151 8.0 17.7 0.00 0.00 0.00 88 1018.5
20260831173654 21 163 9.7 17.7 0.00 0.00 0.00 86 1018.5
20260831173148 22 222 6.4 17.7 0.00 0.00 0.00 85 1018.6
20260831172643 22 217 1.6 8.0 0.00 0.00 0.00 82 1018.6
20260831172137 22 186 1.6 4.8 0.00 0.00 0.00 81 1018.5
20260831171630 22 0 0.0 0.0 0.00 0.00 0.00 81 1018.6
20260831170618 23 182 1.6 6.4 0.00 0.00 0.00 80 1018.7
20260831170113 23 197 0.0 4.8 0.00 0.00 0.00 80 1018.7
20260831165605 23 199 0.0 1.6 0.00 0.00 0.00 79 1018.9
20260831164554 23 209 3.2 6.4 0.00 0.00 0.00 79 1018.9
20260831164048 23 213 1.6 6.4 0.00 0.00 0.00 79 1018.9
20260831163545 23 191 1.6 8.0 0.00 0.00 0.00 79 1018.8
20260831163037 23 214 3.2 8.0 0.00 0.00 0.00 80 1018.9
20260831162530 23 194 1.6 8.0 0.00 0.00 0.00 81 1019.0
20260831162024 23 198 1.6 6.4 0.00 0.00 0.00 81 1019.0
20260831161518 23 211 3.2 6.4 0.00 0.00 0.00 81 1019.0
20260831160507 23 210 6.4 8.0 0.00 0.00 0.00 81 1019.0
20260831160002 22 217 4.8 8.0 0.00 0.00 0.00 82 1019.1
20260831155500 22 204 3.2 8.0 0.00 0.00 0.00 82 1019.1
20260831154000 22 213 4.8 8.0 0.00 0.00 0.00 84 1019.2
20260831153501 22 192 3.2 8.0 0.00 0.00 0.00 85 1019.2
20260831153000 22 196 1.6 6.4 0.00 0.00 0.00 85 1019.3
20260831152500 22 194 1.6 6.4 0.00 0.00 0.00 85 1019.3
20260831151958 22 176 1.6 6.4 0.00 0.00 0.00 85 1019.3
20260831151457 22 177 1.6 6.4 0.00 0.00 0.00 86 1019.4
20260831150956 21 182 0.0 4.8 0.00 0.00 0.00 86 1019.3
20260831150456 21 238 0.0 0.0 0.00 0.00 0.00 87 1019.3
20260831145956 21 238 0.0 0.0 0.00 0.00 0.00 88 1019.2
20260831145454 21 238 0.0 0.0 0.00 0.00 0.00 89 1019.3
20260831144953 21 238 0.0 1.6 0.00 0.00 0.00 90 1019.3
20260831144452 21 238 0.0 1.6 0.00 0.00 0.00 93 1019.3
20260831143952 20 238 0.0 1.6 0.00 0.00 0.00 93 1019.3
20260831143453 20 238 0.0 1.6 0.00 0.00 0.00 93 1019.4
20260831142946 20 238 0.0 0.0 0.00 0.00 0.00 94 1019.3
20260831142446 20 238 0.0 0.0 0.00 0.00 0.00 94 1019.4
20260831141946 20 182 0.0 3.2 0.00 0.00 0.00 95 1019.4
20260831141446 20 182 0.0 3.2 0.00 0.00 0.00 96 1019.4
20260831140946 20 182 0.0 0.0 0.00 0.00 0.00 96 1019.4
20260831140448 20 182 0.0 0.0 0.00 0.00 0.00 96 1019.4
20260831135947 19 182 0.0 0.0 0.00 0.00 0.00 97 1019.4
20260831135444 19 182 0.0 0.0 0.00 0.00 0.00 97 1019.4
20260831134943 19 182 0.0 0.0 0.00 0.00 0.00 97 1019.4
20260831134442 18 182 0.0 0.0 0.00 0.00 0.00 97 1019.2
20260831133442 18 182 1.6 6.4 0.00 0.00 0.00 97 1019.3
20260831132942 18 183 1.6 8.0 0.00 0.00 0.00 97 1019.3
20260831131938 18 167 1.6 9.7 0.00 0.00 0.00 97 1019.3
20260831131438 18 165 4.8 9.7 0.00 0.00 0.00 97 1019.4
20260831130938 18 183 4.8 11.3 0.00 0.00 0.00 97 1019.4
20260831130438 18 181 6.4 11.3 0.00 0.00 0.00 97 1019.5
20260831125938 18 0 6.4 14.5 0.00 0.00 0.00 97 1019.5
20260831124938 18 151 6.4 11.3 0.00 0.00 0.00 98 1019.6
20260831124438 18 161 3.2 11.3 0.00 0.00 0.00 98 1019.5
20260831123933 18 181 1.6 8.0 0.00 0.00 0.00 98 1019.5
20260831121934 18 175 4.8 11.3 0.00 0.00 0.00 98 1019.6
20260831120935 18 175 1.6 9.7 0.00 0.00 0.00 98 1019.7
20260831120434 18 175 0.0 6.4 0.00 0.00 0.00 98 1019.7
20260831115934 17 175 0.0 3.2 0.00 0.00 0.00 97 1019.6
20260831115430 17 175 0.0 3.2 0.00 0.00 0.00 97 1019.6
20260831114430 17 175 0.0 3.2 0.00 0.00 0.00 97 1019.7
20260831113929 17 175 0.0 4.8 0.00 0.00 0.00 97 1019.7
20260831113430 17 175 0.0 4.8 0.00 0.00 0.00 97 1019.7